Time,TemperatureF,DewpointF,PressureIn,WindDirection,WindDirectionDegrees,WindSpeedMPH,WindSpeedGustMPH,Humidity,HourlyPrecipIn,Conditions,Clouds,dailyrainin,SoftwareType,DateUTC
2013-08-03 00:00:00,76.0,0.0,29.90,WNW,300,14.0,25.0,18,-99.99,,,-99.99,,2013-08-03 07:00:00,
2013-08-03 00:08:00,76.0,0.0,29.90,WNW,300,18.0,28.0,20,-99.99,,,-99.99,,2013-08-03 07:08:00,
2013-08-03 00:16:00,76.0,0.0,29.89,WNW,286,21.0,28.0,20,-99.99,,,-99.99,,2013-08-03 07:16:00,
2013-08-03 00:24:00,76.0,0.0,29.89,WNW,302,16.0,26.0,20,-99.99,,,-99.99,,2013-08-03 07:24:00,
2013-08-03 00:32:00,76.0,0.0,29.89,West,270,17.0,28.0,20,-99.99,,,-99.99,,2013-08-03 07:32:00,
2013-08-03 00:40:00,75.0,0.0,29.89,West,275,16.0,24.0,18,-99.99,,,-99.99,,2013-08-03 07:40:00,
2013-08-03 00:48:00,75.0,0.0,29.89,WNW,294,22.0,25.0,18,-99.99,,,-99.99,,2013-08-03 07:48:00,
2013-08-03 00:56:00,76.0,0.0,29.90,WNW,297,14.0,25.0,19,-99.99,,,-99.99,,2013-08-03 07:56:00,
2013-08-03 01:04:00,76.0,0.0,29.90,WNW,282,5.0,22.0,19,-99.99,,,-99.99,,2013-08-03 08:04:00,
2013-08-03 01:12:00,75.0,0.0,29.91,NW,307,2.0,18.0,16,-99.99,,,-99.99,,2013-08-03 08:12:00,
2013-08-03 01:20:00,74.0,0.0,29.91,NW,309,3.0,14.0,21,-99.99,,,-99.99,,2013-08-03 08:20:00,
2013-08-03 01:28:00,74.0,0.0,29.91,WNW,297,10.0,13.0,18,-99.99,,,-99.99,,2013-08-03 08:28:00,
2013-08-03 01:36:00,74.0,0.0,29.90,WNW,301,16.0,18.0,20,-99.99,,,-99.99,,2013-08-03 08:36:00,
2013-08-03 01:44:00,74.0,0.0,29.90,West,278,14.0,23.0,20,-99.99,,,-99.99,,2013-08-03 08:44:00,
2013-08-03 01:52:00,74.0,0.0,29.90,WNW,299,16.0,22.0,21,-99.99,,,-99.99,,2013-08-03 08:52:00,
2013-08-03 02:04:00,73.0,0.0,29.90,WNW,295,16.0,24.0,23,-99.99,,,-99.99,,2013-08-03 09:04:00,
2013-08-03 02:11:00,72.0,0.0,29.90,WNW,285,12.0,21.0,20,-99.99,,,-99.99,,2013-08-03 09:11:00,
2013-08-03 02:20:00,72.0,0.0,29.90,WNW,300,15.0,18.0,21,-99.99,,,-99.99,,2013-08-03 09:20:00,
2013-08-03 02:28:00,72.0,0.0,29.90,WNW,289,10.0,16.0,21,-99.99,,,-99.99,,2013-08-03 09:28:00,
2013-08-03 02:36:00,72.0,0.0,29.90,WNW,289,14.0,16.0,20,-99.99,,,-99.99,,2013-08-03 09:36:00,
2013-08-03 02:44:00,72.0,0.0,29.90,WNW,293,13.0,17.0,21,-99.99,,,-99.99,,2013-08-03 09:44:00,
2013-08-03 02:52:00,72.0,0.0,29.90,WNW,298,9.0,17.0,19,-99.99,,,-99.99,,2013-08-03 09:52:00,
2013-08-03 03:00:00,72.0,0.0,29.90,WNW,302,9.0,16.0,22,-99.99,,,-99.99,,2013-08-03 10:00:00,
2013-08-03 03:08:00,72.0,0.0,29.90,WNW,302,12.0,15.0,22,-99.99,,,-99.99,,2013-08-03 10:08:00,
2013-08-03 03:16:00,72.0,0.0,29.90,WNW,296,12.0,16.0,19,-99.99,,,-99.99,,2013-08-03 10:16:00,
2013-08-03 03:24:00,71.0,0.0,29.90,WNW,300,8.0,14.0,21,-99.99,,,-99.99,,2013-08-03 10:24:00,
2013-08-03 03:32:00,70.0,0.0,29.91,WNW,292,7.0,12.0,20,-99.99,,,-99.99,,2013-08-03 10:32:00,
2013-08-03 03:40:00,71.0,0.0,29.90,WNW,299,6.0,9.0,26,-99.99,,,-99.99,,2013-08-03 10:40:00,
2013-08-03 03:48:00,70.0,0.0,29.90,WNW,293,9.0,12.0,23,-99.99,,,-99.99,,2013-08-03 10:48:00,
2013-08-03 03:56:00,69.0,0.0,29.90,West,270,10.0,14.0,24,-99.99,,,-99.99,,2013-08-03 10:56:00,
2013-08-03 04:04:00,69.0,0.0,29.90,WNW,301,13.0,14.0,23,-99.99,,,-99.99,,2013-08-03 11:04:00,
2013-08-03 04:12:00,69.0,0.0,29.90,NW,304,12.0,14.0,25,-99.99,,,-99.99,,2013-08-03 11:12:00,
2013-08-03 04:20:00,68.0,0.0,29.90,WNW,302,9.0,12.0,23,-99.99,,,-99.99,,2013-08-03 11:20:00,
2013-08-03 04:28:00,68.0,0.0,29.90,WNW,290,10.0,12.0,23,-99.99,,,-99.99,,2013-08-03 11:28:00,
2013-08-03 04:36:00,68.0,0.0,29.91,WNW,294,7.0,10.0,23,-99.99,,,-99.99,,2013-08-03 11:36:00,
2013-08-03 04:44:00,67.0,0.0,29.91,WNW,295,7.0,9.0,23,-99.99,,,-99.99,,2013-08-03 11:44:00,
2013-08-03 04:52:00,68.0,0.0,29.91,WNW,303,9.0,13.0,25,-99.99,,,-99.99,,2013-08-03 11:52:00,
2013-08-03 05:00:00,68.0,0.0,29.91,NW,310,10.0,13.0,25,-99.99,,,-99.99,,2013-08-03 12:00:00,
2013-08-03 05:08:00,68.0,0.0,29.91,WNW,296,2.0,14.0,25,-99.99,,,-99.99,,2013-08-03 12:08:00,
2013-08-03 05:16:00,68.0,0.0,29.91,WNW,298,9.0,13.0,23,-99.99,,,-99.99,,2013-08-03 12:16:00,
2013-08-03 05:24:00,68.0,0.0,29.91,NW,308,9.0,12.0,26,-99.99,,,-99.99,,2013-08-03 12:24:00,
2013-08-03 05:32:00,68.0,0.0,29.91,WNW,294,12.0,13.0,26,-99.99,,,-99.99,,2013-08-03 12:32:00,
2013-08-03 05:40:00,68.0,0.0,29.91,NW,312,5.0,15.0,25,-99.99,,,-99.99,,2013-08-03 12:40:00,
2013-08-03 05:48:00,68.0,0.0,29.91,WNW,298,16.0,16.0,26,-99.99,,,-99.99,,2013-08-03 12:48:00,
2013-08-03 05:56:00,68.0,0.0,29.91,West,277,13.0,18.0,27,-99.99,,,-99.99,,2013-08-03 12:56:00,
2013-08-03 06:04:00,68.0,0.0,29.91,WNW,286,14.0,18.0,26,-99.99,,,-99.99,,2013-08-03 13:04:00,
2013-08-03 06:12:00,68.0,0.0,29.92,WNW,301,13.0,18.0,23,-99.99,,,-99.99,,2013-08-03 13:12:00,
2013-08-03 06:20:00,69.0,0.0,29.92,WNW,292,13.0,16.0,28,-99.99,,,-99.99,,2013-08-03 13:20:00,
2013-08-03 06:28:00,69.0,0.0,29.92,WNW,283,10.0,16.0,25,-99.99,,,-99.99,,2013-08-03 13:28:00,
2013-08-03 06:36:00,69.0,0.0,29.93,WNW,293,6.0,14.0,26,-99.99,,,-99.99,,2013-08-03 13:36:00,
2013-08-03 06:44:00,69.0,0.0,29.93,WNW,300,2.0,13.0,23,-99.99,,,-99.99,,2013-08-03 13:44:00,
2013-08-03 06:52:00,70.0,0.0,29.93,WNW,293,5.0,10.0,24,-99.99,,,-99.99,,2013-08-03 13:52:00,
2013-08-03 07:00:00,73.0,0.0,29.94,WNW,302,7.0,9.0,23,-99.99,,,-99.99,,2013-08-03 14:00:00,
2013-08-03 07:08:00,74.0,0.0,29.94,WNW,287,8.0,12.0,21,-99.99,,,-99.99,,2013-08-03 14:08:00,
2013-08-03 07:16:00,74.0,0.0,29.94,WNW,299,6.0,12.0,19,-99.99,,,-99.99,,2013-08-03 14:16:00,
2013-08-03 07:23:00,74.0,0.0,29.95,NW,305,12.0,13.0,21,-99.99,,,-99.99,,2013-08-03 14:23:00,
2013-08-03 07:32:00,76.0,0.0,29.95,WNW,287,9.0,13.0,21,-99.99,,,-99.99,,2013-08-03 14:32:00,
2013-08-03 07:40:00,76.0,0.0,29.95,WNW,300,10.0,14.0,18,-99.99,,,-99.99,,2013-08-03 14:40:00,
2013-08-03 07:48:00,77.0,0.0,29.95,NW,306,12.0,15.0,22,-99.99,,,-99.99,,2013-08-03 14:48:00,
2013-08-03 07:56:00,77.0,0.0,29.95,WNW,295,12.0,15.0,19,-99.99,,,-99.99,,2013-08-03 14:56:00,
2013-08-03 08:04:00,78.0,0.0,29.96,NW,305,8.0,15.0,17,-99.99,,,-99.99,,2013-08-03 15:04:00,
2013-08-03 08:12:00,77.0,0.0,29.96,WNW,298,10.0,15.0,18,-99.99,,,-99.99,,2013-08-03 15:12:00,
2013-08-03 08:20:00,76.0,0.0,29.96,WNW,294,10.0,17.0,19,-99.99,,,-99.99,,2013-08-03 15:20:00,
2013-08-03 08:28:00,76.0,0.0,29.96,West,274,12.0,17.0,20,-99.99,,,-99.99,,2013-08-03 15:28:00,
2013-08-03 08:36:00,77.0,0.0,29.96,WNW,295,6.0,16.0,20,-99.99,,,-99.99,,2013-08-03 15:36:00,
2013-08-03 08:44:00,80.0,0.0,29.96,WNW,290,10.0,15.0,18,-99.99,,,-99.99,,2013-08-03 15:44:00,
2013-08-03 08:52:00,81.0,0.0,29.96,WNW,303,14.0,17.0,16,-99.99,,,-99.99,,2013-08-03 15:52:00,
2013-08-03 09:00:00,81.0,0.0,29.96,NW,305,12.0,17.0,16,-99.99,,,-99.99,,2013-08-03 16:00:00,
2013-08-03 09:08:00,82.0,0.0,29.96,NW,310,6.0,17.0,17,-99.99,,,-99.99,,2013-08-03 16:08:00,
2013-08-03 09:16:00,83.0,0.0,29.96,NW,310,10.0,17.0,14,-99.99,,,-99.99,,2013-08-03 16:16:00,
2013-08-03 09:24:00,84.0,0.0,29.96,West,277,10.0,16.0,16,-99.99,,,-99.99,,2013-08-03 16:24:00,
2013-08-03 09:32:00,85.0,0.0,29.96,WNW,287,12.0,16.0,15,-99.99,,,-99.99,,2013-08-03 16:32:00,
2013-08-03 09:40:00,86.0,0.0,29.96,NW,310,6.0,16.0,15,-99.99,,,-99.99,,2013-08-03 16:40:00,
2013-08-03 09:47:00,87.0,0.0,29.96,NW,309,6.0,15.0,13,-99.99,,,-99.99,,2013-08-03 16:47:00,
2013-08-03 09:56:00,87.0,0.0,29.96,NW,305,12.0,18.0,14,-99.99,,,-99.99,,2013-08-03 16:56:00,
2013-08-03 10:04:00,87.0,0.0,29.96,NW,307,12.0,16.0,12,-99.99,,,-99.99,,2013-08-03 17:04:00,
2013-08-03 10:12:00,88.0,0.0,29.96,WNW,291,9.0,15.0,15,-99.99,,,-99.99,,2013-08-03 17:12:00,
2013-08-03 10:20:00,88.0,0.0,29.96,NW,313,10.0,15.0,12,-99.99,,,-99.99,,2013-08-03 17:20:00,
2013-08-03 10:28:00,88.0,0.0,29.96,NW,307,10.0,16.0,14,-99.99,,,-99.99,,2013-08-03 17:28:00,
2013-08-03 10:36:00,89.0,0.0,29.96,NW,307,9.0,15.0,13,-99.99,,,-99.99,,2013-08-03 17:36:00,
2013-08-03 10:44:00,89.0,0.0,29.96,NW,311,9.0,17.0,11,-99.99,,,-99.99,,2013-08-03 17:44:00,
2013-08-03 10:52:00,88.0,0.0,29.96,NW,310,14.0,18.0,14,-99.99,,,-99.99,,2013-08-03 17:52:00,
2013-08-03 11:00:00,90.0,0.0,29.96,NW,310,9.0,17.0,14,-99.99,,,-99.99,,2013-08-03 18:00:00,
2013-08-03 11:08:00,90.0,0.0,29.96,NW,308,8.0,15.0,13,-99.99,,,-99.99,,2013-08-03 18:08:00,
2013-08-03 11:16:00,92.0,0.0,29.96,NW,306,6.0,16.0,14,-99.99,,,-99.99,,2013-08-03 18:16:00,
2013-08-03 11:24:00,91.0,0.0,29.96,NW,305,9.0,16.0,13,-99.99,,,-99.99,,2013-08-03 18:24:00,
2013-08-03 11:32:00,93.0,0.0,29.96,NW,316,6.0,15.0,12,-99.99,,,-99.99,,2013-08-03 18:32:00,
2013-08-03 11:40:00,92.0,0.0,29.96,NW,317,5.0,14.0,14,-99.99,,,-99.99,,2013-08-03 18:40:00,
2013-08-03 11:48:00,93.0,0.0,29.96,WNW,303,10.0,16.0,11,-99.99,,,-99.99,,2013-08-03 18:48:00,
2013-08-03 11:56:00,94.0,0.0,29.95,NW,315,10.0,14.0,12,-99.99,,,-99.99,,2013-08-03 18:56:00,
2013-08-03 12:04:00,94.0,0.0,29.95,NW,305,12.0,15.0,9,-99.99,,,-99.99,,2013-08-03 19:04:00,
2013-08-03 12:12:00,94.0,0.0,29.95,WNW,298,14.0,16.0,11,-99.99,,,-99.99,,2013-08-03 19:12:00,
2013-08-03 12:20:00,94.0,0.0,29.95,WNW,301,10.0,17.0,9,-99.99,,,-99.99,,2013-08-03 19:20:00,
2013-08-03 12:28:00,95.0,0.0,29.95,WNW,292,10.0,17.0,11,-99.99,,,-99.99,,2013-08-03 19:28:00,
2013-08-03 12:36:00,94.0,0.0,29.95,NW,310,12.0,18.0,12,-99.99,,,-99.99,,2013-08-03 19:36:00,
2013-08-03 12:44:00,96.0,0.0,29.94,WNW,296,5.0,18.0,10,-99.99,,,-99.99,,2013-08-03 19:44:00,
2013-08-03 12:52:00,96.0,0.0,29.94,WNW,298,9.0,21.0,11,-99.99,,,-99.99,,2013-08-03 19:52:00,
2013-08-03 13:00:00,95.0,0.0,29.94,WNW,297,9.0,22.0,9,-99.99,,,-99.99,,2013-08-03 20:00:00,
2013-08-03 13:08:00,95.0,0.0,29.94,WNW,300,12.0,22.0,10,-99.99,,,-99.99,,2013-08-03 20:08:00,
2013-08-03 13:16:00,96.0,0.0,29.94,WNW,298,12.0,22.0,9,-99.99,,,-99.99,,2013-08-03 20:16:00,
2013-08-03 13:24:00,96.0,0.0,29.94,NW,307,5.0,18.0,11,-99.99,,,-99.99,,2013-08-03 20:24:00,
2013-08-03 13:32:00,96.0,0.0,29.94,WNW,289,6.0,22.0,8,-99.99,,,-99.99,,2013-08-03 20:32:00,
2013-08-03 13:40:00,96.0,0.0,29.94,WNW,300,6.0,20.0,7,-99.99,,,-99.99,,2013-08-03 20:40:00,
2013-08-03 13:49:00,96.0,0.0,29.93,WNW,294,12.0,23.0,7,-99.99,,,-99.99,,2013-08-03 20:49:00,
2013-08-03 13:56:00,96.0,0.0,29.93,NW,315,15.0,16.0,7,-99.99,,,-99.99,,2013-08-03 20:56:00,
2013-08-03 14:04:00,98.0,0.0,29.93,WNW,284,13.0,20.0,8,-99.99,,,-99.99,,2013-08-03 21:04:00,
2013-08-03 14:12:00,97.0,0.0,29.92,WNW,297,9.0,18.0,6,-99.99,,,-99.99,,2013-08-03 21:12:00,
2013-08-03 14:20:00,97.0,0.0,29.92,WNW,302,5.0,20.0,8,-99.99,,,-99.99,,2013-08-03 21:20:00,
2013-08-03 14:28:00,97.0,0.0,29.92,NW,306,13.0,17.0,7,-99.99,,,-99.99,,2013-08-03 21:28:00,
2013-08-03 14:36:00,99.0,0.0,29.92,WNW,301,15.0,21.0,6,-99.99,,,-99.99,,2013-08-03 21:36:00,
2013-08-03 14:44:00,100.0,0.0,29.91,WNW,289,1.0,22.0,7,-99.99,,,-99.99,,2013-08-03 21:44:00,
2013-08-03 14:52:00,98.0,0.0,29.91,WNW,299,15.0,23.0,7,-99.99,,,-99.99,,2013-08-03 21:52:00,
2013-08-03 15:00:00,99.0,0.0,29.91,NW,309,9.0,23.0,7,-99.99,,,-99.99,,2013-08-03 22:00:00,
2013-08-03 15:08:00,97.0,0.0,29.91,WNW,302,6.0,22.0,4,-99.99,,,-99.99,,2013-08-03 22:08:00,
2013-08-03 15:16:00,98.0,0.0,29.90,NW,312,8.0,21.0,4,-99.99,,,-99.99,,2013-08-03 22:16:00,
2013-08-03 15:24:00,99.0,0.0,29.90,NW,309,1.0,18.0,4,-99.99,,,-99.99,,2013-08-03 22:24:00,
2013-08-03 15:32:00,100.0,0.0,29.90,WNW,290,13.0,22.0,4,-99.99,,,-99.99,,2013-08-03 22:32:00,
2013-08-03 15:40:00,99.0,0.0,29.90,WNW,299,10.0,20.0,5,-99.99,,,-99.99,,2013-08-03 22:40:00,
2013-08-03 15:48:00,99.0,0.0,29.90,WNW,301,13.0,24.0,7,-99.99,,,-99.99,,2013-08-03 22:48:00,
2013-08-03 15:56:00,97.0,0.0,29.89,WNW,302,12.0,18.0,5,-99.99,,,-99.99,,2013-08-03 22:56:00,
2013-08-03 16:04:00,98.0,0.0,29.89,WNW,298,6.0,23.0,7,-99.99,,,-99.99,,2013-08-03 23:04:00,
2013-08-03 16:12:00,100.0,0.0,29.89,NW,308,6.0,21.0,4,-99.99,,,-99.99,,2013-08-03 23:12:00,
2013-08-03 16:20:00,98.0,0.0,29.89,NW,311,10.0,22.0,7,-99.99,,,-99.99,,2013-08-03 23:20:00,
2013-08-03 16:28:00,98.0,0.0,29.89,NW,308,9.0,22.0,6,-99.99,,,-99.99,,2013-08-03 23:28:00,
2013-08-03 16:36:00,99.0,0.0,29.88,NW,310,13.0,20.0,5,-99.99,,,-99.99,,2013-08-03 23:36:00,
2013-08-03 16:44:00,99.0,0.0,29.88,WNW,303,9.0,20.0,6,-99.99,,,-99.99,,2013-08-03 23:44:00,
2013-08-03 16:52:00,98.0,0.0,29.88,WNW,300,8.0,20.0,4,-99.99,,,-99.99,,2013-08-03 23:52:00,
2013-08-03 17:00:00,97.0,0.0,29.88,NW,309,13.0,20.0,4,-99.99,,,-99.99,,2013-08-04 00:00:00,
2013-08-03 17:08:00,97.0,0.0,29.88,NW,306,10.0,20.0,8,-99.99,,,-99.99,,2013-08-04 00:08:00,
2013-08-03 17:16:00,96.0,0.0,29.88,WNW,302,9.0,21.0,6,-99.99,,,-99.99,,2013-08-04 00:16:00,
2013-08-03 17:24:00,96.0,0.0,29.88,NW,307,13.0,18.0,6,-99.99,,,-99.99,,2013-08-04 00:24:00,
2013-08-03 17:32:00,96.0,0.0,29.87,NW,306,5.0,21.0,6,-99.99,,,-99.99,,2013-08-04 00:32:00,
2013-08-03 17:40:00,96.0,0.0,29.87,NW,306,14.0,18.0,4,-99.99,,,-99.99,,2013-08-04 00:40:00,
2013-08-03 17:48:00,96.0,0.0,29.87,NW,307,5.0,20.0,4,-99.99,,,-99.99,,2013-08-04 00:48:00,
2013-08-03 17:56:00,96.0,0.0,29.87,WNW,296,15.0,20.0,8,-99.99,,,-99.99,,2013-08-04 00:56:00,
2013-08-03 18:04:00,96.0,0.0,29.87,WNW,294,9.0,17.0,6,-99.99,,,-99.99,,2013-08-04 01:04:00,
2013-08-03 18:12:00,95.0,0.0,29.86,WNW,301,12.0,14.0,8,-99.99,,,-99.99,,2013-08-04 01:12:00,
2013-08-03 18:20:00,95.0,0.0,29.87,WNW,294,8.0,17.0,7,-99.99,,,-99.99,,2013-08-04 01:20:00,
2013-08-03 18:28:00,95.0,0.0,29.86,WNW,302,9.0,18.0,6,-99.99,,,-99.99,,2013-08-04 01:28:00,
2013-08-03 18:36:00,96.0,0.0,29.87,NW,306,14.0,17.0,7,-99.99,,,-99.99,,2013-08-04 01:36:00,
2013-08-03 18:44:00,96.0,0.0,29.87,WNW,289,7.0,16.0,8,-99.99,,,-99.99,,2013-08-04 01:44:00,
2013-08-03 18:52:00,96.0,0.0,29.87,WNW,296,13.0,17.0,5,-99.99,,,-99.99,,2013-08-04 01:52:00,
2013-08-03 19:00:00,95.0,0.0,29.87,NW,306,10.0,17.0,5,-99.99,,,-99.99,,2013-08-04 02:00:00,
2013-08-03 19:08:00,95.0,0.0,29.87,NW,304,9.0,15.0,6,-99.99,,,-99.99,,2013-08-04 02:08:00,
2013-08-03 19:16:00,94.0,0.0,29.87,WNW,299,6.0,16.0,7,-99.99,,,-99.99,,2013-08-04 02:16:00,
2013-08-03 19:24:00,94.0,0.0,29.86,WNW,292,12.0,13.0,8,-99.99,,,-99.99,,2013-08-04 02:24:00,
2013-08-03 19:32:00,94.0,0.0,29.86,WNW,301,7.0,12.0,8,-99.99,,,-99.99,,2013-08-04 02:32:00,
2013-08-03 19:40:00,93.0,0.0,29.87,WNW,299,6.0,12.0,7,-99.99,,,-99.99,,2013-08-04 02:40:00,
2013-08-03 19:48:00,92.0,0.0,29.87,NW,304,9.0,12.0,6,-99.99,,,-99.99,,2013-08-04 02:48:00,
2013-08-03 19:56:00,92.0,0.0,29.87,WNW,294,9.0,12.0,7,-99.99,,,-99.99,,2013-08-04 02:56:00,
2013-08-03 20:04:00,91.0,0.0,29.87,WNW,303,7.0,12.0,8,-99.99,,,-99.99,,2013-08-04 03:04:00,
2013-08-03 20:12:00,91.0,0.0,29.87,NW,307,10.0,14.0,8,-99.99,,,-99.99,,2013-08-04 03:12:00,
2013-08-03 20:20:00,90.0,0.0,29.88,WNW,290,12.0,15.0,11,-99.99,,,-99.99,,2013-08-04 03:20:00,
2013-08-03 20:28:00,89.0,0.0,29.88,WNW,283,13.0,15.0,11,-99.99,,,-99.99,,2013-08-04 03:28:00,
2013-08-03 20:36:00,88.0,0.0,29.88,NW,307,14.0,20.0,16,-99.99,,,-99.99,,2013-08-04 03:36:00,
2013-08-03 20:44:00,88.0,0.0,29.88,WNW,293,13.0,20.0,11,-99.99,,,-99.99,,2013-08-04 03:44:00,
2013-08-03 20:52:00,87.0,0.0,29.89,WNW,300,12.0,20.0,15,-99.99,,,-99.99,,2013-08-04 03:52:00,
2013-08-03 21:00:00,87.0,0.0,29.89,WNW,299,12.0,21.0,13,-99.99,,,-99.99,,2013-08-04 04:00:00,
2013-08-03 21:04:00,86.0,0.0,29.89,WNW,300,12.0,21.0,13,-99.99,,,-99.99,,2013-08-04 04:04:00,
2013-08-03 21:12:00,86.0,0.0,29.89,WNW,289,10.0,22.0,14,-99.99,,,-99.99,,2013-08-04 04:12:00,
2013-08-03 21:20:00,86.0,0.0,29.89,WNW,301,17.0,22.0,15,-99.99,,,-99.99,,2013-08-04 04:20:00,
2013-08-03 21:27:00,85.0,0.0,29.90,WNW,302,17.0,22.0,15,-99.99,,,-99.99,,2013-08-04 04:27:00,
2013-08-03 21:36:00,84.0,0.0,29.90,WNW,301,10.0,23.0,19,-99.99,,,-99.99,,2013-08-04 04:36:00,
2013-08-03 21:44:00,84.0,0.0,29.90,NW,307,18.0,22.0,19,-99.99,,,-99.99,,2013-08-04 04:44:00,
2013-08-03 21:48:00,84.0,0.0,29.90,WNW,287,17.0,22.0,19,-99.99,,,-99.99,,2013-08-04 04:48:00,
2013-08-03 21:56:00,83.0,0.0,29.90,WNW,293,13.0,23.0,17,-99.99,,,-99.99,,2013-08-04 04:56:00,
2013-08-03 22:04:00,83.0,0.0,29.91,West,259,14.0,21.0,20,-99.99,,,-99.99,,2013-08-04 05:04:00,
2013-08-03 22:11:00,82.0,0.0,29.91,West,268,15.0,21.0,23,-99.99,,,-99.99,,2013-08-04 05:11:00,
2013-08-03 22:20:00,82.0,0.0,29.91,WSW,254,10.0,21.0,23,-99.99,,,-99.99,,2013-08-04 05:20:00,
2013-08-03 22:28:00,81.0,0.0,29.91,WNW,299,9.0,21.0,20,-99.99,,,-99.99,,2013-08-04 05:28:00,
2013-08-03 22:36:00,81.0,0.0,29.91,NW,307,16.0,18.0,24,-99.99,,,-99.99,,2013-08-04 05:36:00,
2013-08-03 22:44:00,80.0,0.0,29.92,WNW,294,14.0,18.0,23,-99.99,,,-99.99,,2013-08-04 05:44:00,
2013-08-03 22:52:00,80.0,0.0,29.92,WNW,301,10.0,16.0,23,-99.99,,,-99.99,,2013-08-04 05:52:00,
2013-08-03 23:00:00,80.0,0.0,29.92,WNW,288,12.0,14.0,21,-99.99,,,-99.99,,2013-08-04 06:00:00,
2013-08-03 23:08:00,80.0,0.0,29.92,WNW,298,10.0,14.0,20,-99.99,,,-99.99,,2013-08-04 06:08:00,
2013-08-03 23:16:00,80.0,0.0,29.92,WNW,300,10.0,14.0,19,-99.99,,,-99.99,,2013-08-04 06:16:00,
2013-08-03 23:24:00,80.0,0.0,29.92,WNW,298,8.0,14.0,19,-99.99,,,-99.99,,2013-08-04 06:24:00,
2013-08-03 23:32:00,79.0,0.0,29.92,WNW,299,12.0,16.0,19,-99.99,,,-99.99,,2013-08-04 06:32:00,
2013-08-03 23:40:00,79.0,0.0,29.92,NW,305,10.0,15.0,21,-99.99,,,-99.99,,2013-08-04 06:40:00,
2013-08-03 23:48:00,79.0,0.0,29.93,WNW,301,10.0,16.0,23,-99.99,,,-99.99,,2013-08-04 06:48:00,
2013-08-03 23:55:00,79.0,0.0,29.93,WNW,297,14.0,15.0,18,-99.99,,,-99.99,,2013-08-04 06:55:00,